Time,TemperatureF,DewpointF,PressureIn,WindDirection,WindDirectionDegrees,WindSpeedMPH,WindSpeedGustMPH,Humidity,HourlyPrecipIn,Conditions,Clouds,dailyrainin,SoftwareType,DateUTC
2013-02-08 00:14:00,70.4,65.0,30.00,SW,236,6.0,9.0,82,0.00,,,0.00,weatherlink.com 1.10,2013-02-08 05:14:00,
2013-02-08 00:29:00,70.3,65.0,29.99,SW,218,1.0,9.0,82,0.00,,,0.00,weatherlink.com 1.10,2013-02-08 05:29:00,
2013-02-08 00:44:00,69.9,65.0,29.99,SSE,154,0.0,6.0,84,0.00,,,0.00,weatherlink.com 1.10,2013-02-08 05:44:00,
2013-02-08 00:59:00,69.6,65.0,30.00,WSW,242,3.0,5.0,85,0.00,,,0.00,weatherlink.com 1.10,2013-02-08 05:59:00,
2013-02-08 01:14:00,69.4,65.0,29.99,SW,226,2.0,6.0,85,0.00,,,0.00,weatherlink.com 1.10,2013-02-08 06:14:00,
2013-02-08 01:29:00,69.0,65.0,29.99,SW,217,2.0,6.0,86,0.00,,,0.00,weatherlink.com 1.10,2013-02-08 06:29:00,
2013-02-08 01:45:00,68.8,65.0,29.99,SW,232,0.0,6.0,86,0.00,,,0.00,weatherlink.com 1.10,2013-02-08 06:45:00,
2013-02-08 02:00:00,68.8,65.0,29.98,SW,229,2.0,7.0,87,0.00,,,0.00,weatherlink.com 1.10,2013-02-08 07:00:00,
2013-02-08 02:15:00,68.5,65.0,29.97,SSE,152,3.0,6.0,88,0.00,,,0.00,weatherlink.com 1.10,2013-02-08 07:15:00,
2013-02-08 02:30:00,68.5,65.0,29.97,SE,136,1.0,6.0,88,0.00,,,0.00,weatherlink.com 1.10,2013-02-08 07:30:00,
2013-02-08 02:45:00,68.4,65.0,29.97,SSE,153,2.0,6.0,88,0.00,,,0.00,weatherlink.com 1.10,2013-02-08 07:45:00,
2013-02-08 03:00:00,68.4,65.0,29.97,SSW,207,1.0,8.0,89,0.00,,,0.00,weatherlink.com 1.10,2013-02-08 08:00:00,
2013-02-08 03:15:00,68.3,65.0,29.98,SW,232,3.0,5.0,89,0.00,,,0.00,weatherlink.com 1.10,2013-02-08 08:15:00,
2013-02-08 03:30:00,68.1,65.0,29.97,SW,232,3.0,6.0,90,0.00,,,0.00,weatherlink.com 1.10,2013-02-08 08:30:00,
2013-02-08 03:45:00,68.2,65.0,29.98,SW,226,1.0,7.0,90,0.00,,,0.00,weatherlink.com 1.10,2013-02-08 08:45:00,
2013-02-08 04:00:00,68.3,65.0,29.98,SW,218,4.0,7.0,90,0.00,,,0.00,weatherlink.com 1.10,2013-02-08 09:00:00,
2013-02-08 04:15:00,68.3,66.0,29.97,WSW,245,3.0,6.0,91,0.00,,,0.00,weatherlink.com 1.10,2013-02-08 09:15:00,
2013-02-08 04:30:00,68.3,66.0,29.97,SSE,166,3.0,7.0,91,0.00,,,0.00,weatherlink.com 1.10,2013-02-08 09:30:00,
2013-02-08 04:45:00,68.5,66.0,29.97,South,174,4.0,7.0,92,0.00,,,0.00,weatherlink.com 1.10,2013-02-08 09:45:00,
2013-02-08 05:00:00,68.8,66.0,29.97,SW,235,6.0,9.0,92,0.00,,,0.00,weatherlink.com 1.10,2013-02-08 10:00:00,
2013-02-08 05:15:00,69.0,66.0,29.97,SW,225,4.0,9.0,91,0.00,,,0.00,weatherlink.com 1.10,2013-02-08 10:15:00,
2013-02-08 05:30:00,69.2,67.0,29.98,SW,225,1.0,11.0,91,0.00,,,0.00,weatherlink.com 1.10,2013-02-08 10:30:00,
2013-02-08 05:45:00,69.3,67.0,29.99,South,191,5.0,11.0,92,0.00,,,0.00,weatherlink.com 1.10,2013-02-08 10:45:00,
2013-02-08 06:00:00,69.4,67.0,29.99,SW,236,6.0,11.0,92,0.00,,,0.00,weatherlink.com 1.10,2013-02-08 11:00:00,
2013-02-08 06:15:00,69.5,67.0,29.99,SSE,160,9.0,11.0,92,0.00,,,0.00,weatherlink.com 1.10,2013-02-08 11:15:00,
2013-02-08 06:30:00,69.4,67.0,30.00,SW,231,5.0,9.0,92,0.00,,,0.00,weatherlink.com 1.10,2013-02-08 11:30:00,
2013-02-08 06:45:00,69.1,67.0,30.00,SSW,208,4.0,10.0,92,0.00,,,0.00,weatherlink.com 1.10,2013-02-08 11:45:00,
2013-02-08 07:00:00,69.2,67.0,30.01,SW,221,5.0,11.0,92,0.00,,,0.00,weatherlink.com 1.10,2013-02-08 12:00:00,
2013-02-08 07:15:00,69.2,67.0,30.01,SW,229,5.0,11.0,93,0.00,,,0.00,weatherlink.com 1.10,2013-02-08 12:15:00,
2013-02-08 07:30:00,69.7,67.0,30.02,SW,215,5.0,10.0,92,0.00,,,0.00,weatherlink.com 1.10,2013-02-08 12:30:00,
2013-02-08 07:46:00,70.2,68.0,30.02,WSW,238,6.0,11.0,92,0.00,,,0.00,weatherlink.com 1.10,2013-02-08 12:46:00,
2013-02-08 08:00:00,70.7,68.0,30.03,SW,228,4.0,11.0,91,0.00,,,0.00,weatherlink.com 1.10,2013-02-08 13:00:00,
2013-02-08 08:15:00,71.2,68.0,30.04,SW,232,7.0,12.0,90,0.00,,,0.00,weatherlink.com 1.10,2013-02-08 13:15:00,
2013-02-08 08:30:00,71.6,69.0,30.04,West,262,8.0,12.0,90,0.00,,,0.00,weatherlink.com 1.10,2013-02-08 13:30:00,
2013-02-08 08:46:00,71.5,69.0,30.05,WSW,245,4.0,10.0,90,0.00,,,0.00,weatherlink.com 1.10,2013-02-08 13:46:00,
2013-02-08 09:00:00,71.8,69.0,30.05,WSW,257,5.0,13.0,90,0.00,,,0.00,weatherlink.com 1.10,2013-02-08 14:00:00,
2013-02-08 09:16:00,72.2,69.0,30.07,West,267,2.0,13.0,89,0.00,,,0.00,weatherlink.com 1.10,2013-02-08 14:16:00,
2013-02-08 09:30:00,71.9,69.0,30.07,WSW,257,5.0,10.0,89,0.00,,,0.00,weatherlink.com 1.10,2013-02-08 14:30:00,
2013-02-08 09:45:00,72.1,69.0,30.07,WSW,247,4.0,11.0,89,0.00,,,0.00,weatherlink.com 1.10,2013-02-08 14:45:00,
2013-02-08 10:01:00,73.2,70.0,30.07,West,279,8.0,12.0,88,0.00,,,0.00,weatherlink.com 1.10,2013-02-08 15:01:00,
2013-02-08 10:15:00,72.9,69.0,30.07,NW,314,3.0,12.0,87,0.00,,,0.00,weatherlink.com 1.10,2013-02-08 15:15:00,
2013-02-08 10:30:00,73.1,69.0,30.08,West,267,9.0,10.0,86,0.00,,,0.00,weatherlink.com 1.10,2013-02-08 15:30:00,
2013-02-08 10:46:00,73.7,69.0,30.07,West,265,6.0,11.0,84,0.00,,,0.00,weatherlink.com 1.10,2013-02-08 15:46:00,
2013-02-08 11:00:00,74.0,69.0,30.07,West,259,5.0,13.0,83,0.00,,,0.00,weatherlink.com 1.10,2013-02-08 16:00:00,
2013-02-08 11:16:00,74.4,69.0,30.07,WNW,290,10.0,12.0,82,0.00,,,0.00,weatherlink.com 1.10,2013-02-08 16:16:00,
2013-02-08 11:31:00,74.8,69.0,30.07,WNW,288,7.0,11.0,81,0.00,,,0.00,weatherlink.com 1.10,2013-02-08 16:31:00,
2013-02-08 11:46:00,74.8,68.0,30.06,West,278,8.0,13.0,79,0.00,,,0.00,weatherlink.com 1.10,2013-02-08 16:46:00,
2013-02-08 12:01:00,74.8,68.0,30.07,West,276,5.0,13.0,78,0.00,,,0.00,weatherlink.com 1.10,2013-02-08 17:01:00,
2013-02-08 12:16:00,75.3,68.0,30.06,WNW,288,5.0,12.0,78,0.00,,,0.00,weatherlink.com 1.10,2013-02-08 17:16:00,
2013-02-08 12:31:00,75.4,68.0,30.06,WSW,253,5.0,10.0,78,0.00,,,0.00,weatherlink.com 1.10,2013-02-08 17:31:00,
2013-02-08 12:46:00,75.8,69.0,30.05,West,271,4.0,12.0,78,0.00,,,0.00,weatherlink.com 1.10,2013-02-08 17:46:00,
2013-02-08 13:01:00,76.8,69.0,30.04,WSW,241,5.0,10.0,78,0.00,,,0.00,weatherlink.com 1.10,2013-02-08 18:01:00,
2013-02-08 13:16:00,77.4,69.0,30.04,WSW,245,6.0,11.0,74,0.00,,,0.00,weatherlink.com 1.10,2013-02-08 18:16:00,
2013-02-08 13:31:00,77.5,68.0,30.03,WSW,257,8.0,13.0,72,0.00,,,0.00,weatherlink.com 1.10,2013-02-08 18:31:00,
2013-02-08 13:46:00,77.7,68.0,30.02,SW,236,4.0,10.0,71,0.00,,,0.00,weatherlink.com 1.10,2013-02-08 18:46:00,
2013-02-08 14:01:00,78.5,68.0,30.02,WNW,293,8.0,12.0,69,0.00,,,0.00,weatherlink.com 1.10,2013-02-08 19:01:00,
2013-02-08 14:16:00,79.3,67.0,30.02,West,266,5.0,10.0,66,0.00,,,0.00,weatherlink.com 1.10,2013-02-08 19:16:00,
2013-02-08 14:31:00,79.8,67.0,30.02,WSW,252,5.0,11.0,64,0.00,,,0.00,weatherlink.com 1.10,2013-02-08 19:31:00,
2013-02-08 14:46:00,79.5,65.0,30.02,West,273,4.0,14.0,62,0.00,,,0.00,weatherlink.com 1.10,2013-02-08 19:46:00,
2013-02-08 15:01:00,79.6,63.0,30.02,WSW,257,6.0,15.0,58,0.00,,,0.00,weatherlink.com 1.10,2013-02-08 20:01:00,
2013-02-08 15:16:00,79.9,64.0,30.01,West,264,4.0,15.0,58,0.00,,,0.00,weatherlink.com 1.10,2013-02-08 20:16:00,
2013-02-08 15:31:00,80.2,62.0,30.00,WNW,295,6.0,10.0,54,0.00,,,0.00,weatherlink.com 1.10,2013-02-08 20:31:00,
2013-02-08 15:46:00,80.0,61.0,30.00,WNW,290,8.0,10.0,53,0.00,,,0.00,weatherlink.com 1.10,2013-02-08 20:46:00,
2013-02-08 16:01:00,80.4,62.0,30.00,WNW,287,4.0,10.0,53,0.00,,,0.00,weatherlink.com 1.10,2013-02-08 21:01:00,
2013-02-08 16:16:00,80.3,61.0,30.00,WNW,298,8.0,10.0,52,0.00,,,0.00,weatherlink.com 1.10,2013-02-08 21:16:00,
2013-02-08 16:31:00,80.3,59.0,30.00,WSW,255,6.0,12.0,49,0.00,,,0.00,weatherlink.com 1.10,2013-02-08 21:31:00,
2013-02-08 16:47:00,80.7,60.0,30.00,West,269,4.0,10.0,49,0.00,,,0.00,weatherlink.com 1.10,2013-02-08 21:47:00,
2013-02-08 17:01:00,80.2,60.0,30.00,WNW,300,2.0,8.0,50,0.00,,,0.00,weatherlink.com 1.10,2013-02-08 22:01:00,
2013-02-08 17:16:00,79.9,61.0,30.01,NW,316,1.0,5.0,52,0.00,,,0.00,weatherlink.com 1.10,2013-02-08 22:16:00,
2013-02-08 17:31:00,79.3,60.0,30.02,WNW,293,3.0,4.0,51,0.00,,,0.00,weatherlink.com 1.10,2013-02-08 22:31:00,
2013-02-08 17:46:00,78.6,59.0,30.02,NNW,340,0.0,5.0,52,0.00,,,0.00,weatherlink.com 1.10,2013-02-08 22:46:00,
2013-02-08 18:02:00,76.0,67.0,30.02,NE,44,2.0,4.0,74,0.00,,,0.00,weatherlink.com 1.10,2013-02-08 23:02:00,
2013-02-08 18:17:00,75.1,67.0,30.02,NE,47,0.0,4.0,77,0.00,,,0.00,weatherlink.com 1.10,2013-02-08 23:17:00,
2013-02-08 18:32:00,74.4,68.0,30.02,NE,36,2.0,4.0,81,0.00,,,0.00,weatherlink.com 1.10,2013-02-08 23:32:00,
2013-02-08 18:46:00,73.7,68.0,30.03,NE,56,1.0,3.0,83,0.00,,,0.00,weatherlink.com 1.10,2013-02-08 23:46:00,
2013-02-08 19:01:00,73.1,68.0,30.04,NE,37,0.0,0.0,85,0.00,,,0.00,weatherlink.com 1.10,2013-02-09 00:01:00,
2013-02-08 19:16:00,72.6,68.0,30.04,NE,36,0.0,0.0,86,0.00,,,0.00,weatherlink.com 1.10,2013-02-09 00:16:00,
2013-02-08 19:31:00,72.3,69.0,30.04,NNE,19,0.0,0.0,88,0.00,,,0.00,weatherlink.com 1.10,2013-02-09 00:31:00,
2013-02-08 19:46:00,71.8,69.0,30.04,NNE,16,0.0,0.0,89,0.00,,,0.00,weatherlink.com 1.10,2013-02-09 00:46:00,
2013-02-08 20:01:00,71.4,68.0,30.05,NNE,16,0.0,0.0,90,0.00,,,0.00,weatherlink.com 1.10,2013-02-09 01:01:00,
2013-02-08 20:16:00,71.3,69.0,30.05,NNE,16,0.0,0.0,91,0.00,,,0.00,weatherlink.com 1.10,2013-02-09 01:16:00,
2013-02-08 20:31:00,71.0,68.0,30.06,NNE,16,0.0,0.0,91,0.00,,,0.00,weatherlink.com 1.10,2013-02-09 01:31:00,
2013-02-08 20:47:00,70.9,69.0,30.06,NNE,26,0.0,0.0,92,0.00,,,0.00,weatherlink.com 1.10,2013-02-09 01:47:00,
2013-02-08 21:01:00,71.0,69.0,30.06,ENE,73,0.0,0.0,92,0.00,,,0.00,weatherlink.com 1.10,2013-02-09 02:01:00,
2013-02-08 21:16:00,71.4,69.0,30.06,East,91,0.0,2.0,91,0.00,,,0.00,weatherlink.com 1.10,2013-02-09 02:16:00,
2013-02-08 21:31:00,70.8,68.0,30.07,ENE,77,0.0,1.0,92,0.00,,,0.00,weatherlink.com 1.10,2013-02-09 02:31:00,
2013-02-08 21:47:00,70.1,68.0,30.07,ENE,73,0.0,0.0,92,0.00,,,0.00,weatherlink.com 1.10,2013-02-09 02:47:00,
2013-02-08 22:01:00,69.6,67.0,30.07,ENE,74,0.0,0.0,92,0.00,,,0.00,weatherlink.com 1.10,2013-02-09 03:01:00,
2013-02-08 22:16:00,69.3,67.0,30.08,NE,53,0.0,0.0,93,0.00,,,0.00,weatherlink.com 1.10,2013-02-09 03:16:00,
2013-02-08 22:31:00,69.0,67.0,30.08,NE,51,0.0,0.0,93,0.00,,,0.00,weatherlink.com 1.10,2013-02-09 03:31:00,
2013-02-08 22:46:00,69.0,67.0,30.08,NE,51,0.0,0.0,94,0.00,,,0.00,weatherlink.com 1.10,2013-02-09 03:46:00,
2013-02-08 23:01:00,68.7,67.0,30.08,NE,51,0.0,0.0,94,0.00,,,0.00,weatherlink.com 1.10,2013-02-09 04:01:00,
2013-02-08 23:16:00,68.8,67.0,30.09,North,1,0.0,0.0,95,0.00,,,0.00,weatherlink.com 1.10,2013-02-09 04:16:00,
2013-02-08 23:32:00,68.8,67.0,30.09,North,1,0.0,0.0,95,0.00,,,0.00,weatherlink.com 1.10,2013-02-09 04:32:00,
2013-02-08 23:47:00,68.4,67.0,30.09,NW,318,0.0,0.0,95,0.00,,,0.00,weatherlink.com 1.10,2013-02-09 04:47:00,